WMT411 LIBP-LATI

Flight info

Callsign WMT411
Flight time 0h 59m
Altitude 19000
Route ERPOG M169 RIVAM DCT ORAKA DCT BALHA DCT MOKUN DCT TIBRI DCT PETAK
Aircraft A321/M-SDE1E2E3FGIJ1J4RWXY/LB1

Departure

Time 2026-05-05 10:35
Airport Abruzzo Airport (LIBP)

Arrival

Time 2026-05-05 11:35
Airport Tirana International Airport Mother Teresa (LATI)
Time Latitude Longitude Altitude Speed Heading
2026-05-05 10:27 42.43184 14.18784 44 ft 1 kts 217°
2026-05-05 10:27 42.43187 14.18787 43 ft 1 kts 217°
2026-05-05 10:29 42.43168 14.18767 44 ft 8 kts 218°
2026-05-05 10:29 42.43107 14.18700 46 ft 14 kts 220°
2026-05-05 10:29 42.43034 14.18592 47 ft 18 kts 244°
2026-05-05 10:29 42.42982 14.18445 48 ft 16 kts 229°
2026-05-05 10:30 42.42899 14.18350 47 ft 15 kts 218°
2026-05-05 10:30 42.42818 14.18264 49 ft 15 kts 218°
2026-05-05 10:30 42.42731 14.18172 51 ft 17 kts 218°
2026-05-05 10:30 42.42637 14.18073 50 ft 18 kts 218°
2026-05-05 10:31 42.42537 14.17968 53 ft 19 kts 218°
2026-05-05 10:31 42.42431 14.17857 54 ft 20 kts 217°
2026-05-05 10:31 42.42319 14.17742 55 ft 21 kts 217°
2026-05-05 10:31 42.42267 14.17602 53 ft 10 kts 271°
2026-05-05 10:32 42.42267 14.17599 52 ft 0 kts 272°
2026-05-05 10:34 42.42268 14.17566 52 ft 10 kts 272°
2026-05-05 10:34 42.42325 14.17488 56 ft 14 kts 359°
2026-05-05 10:35 42.42414 14.17560 49 ft 17 kts 37°
2026-05-05 10:35 42.42667 14.17824 51 ft 86 kts 38°
2026-05-05 10:35 42.43338 14.18520 52 ft 152 kts 39°
2026-05-05 10:35 42.44199 14.19438 671 ft 159 kts 41°
2026-05-05 10:36 42.45059 14.20414 1407 ft 166 kts 39°
2026-05-05 10:36 42.46028 14.21431 1897 ft 187 kts 37°
2026-05-05 10:36 42.47131 14.22547 2323 ft 209 kts 37°
2026-05-05 10:36 42.48351 14.23779 2739 ft 225 kts 37°
2026-05-05 10:37 42.49556 14.25232 3042 ft 244 kts 56°
2026-05-05 10:37 42.50032 14.27501 3403 ft 262 kts 94°
2026-05-05 10:37 42.49716 14.29953 4202 ft 267 kts 107°
2026-05-05 10:37 42.49139 14.32360 5038 ft 272 kts 110°
2026-05-05 10:38 42.48502 14.34806 5845 ft 278 kts 110°
2026-05-05 10:38 42.47882 14.37328 6629 ft 285 kts 109°
2026-05-05 10:38 42.47303 14.39925 7393 ft 290 kts 107°
2026-05-05 10:38 42.46760 14.42588 8252 ft 296 kts 105°
2026-05-05 10:39 42.46241 14.45313 9192 ft 302 kts 105°
2026-05-05 10:39 42.45732 14.48097 10037 ft 307 kts 104°
2026-05-05 10:39 42.45268 14.50973 10511 ft 324 kts 98°
2026-05-05 10:39 42.45159 14.54122 10767 ft 346 kts 86°
2026-05-05 10:40 42.45328 14.57379 11305 ft 355 kts 86°
2026-05-05 10:40 42.45491 14.60785 12041 ft 360 kts 86°
2026-05-05 10:40 42.45641 14.64188 12791 ft 364 kts 86°
2026-05-05 10:40 42.45781 14.67586 13541 ft 368 kts 87°
2026-05-05 10:41 42.45924 14.71109 14241 ft 372 kts 87°
2026-05-05 10:41 42.46066 14.74626 14887 ft 376 kts 87°
2026-05-05 10:41 42.46209 14.78134 15557 ft 380 kts 87°
2026-05-05 10:41 42.46354 14.81723 16224 ft 384 kts 87°
2026-05-05 10:42 42.46644 14.89012 17566 ft 391 kts 88°
2026-05-05 10:42 42.46787 14.92708 18234 ft 395 kts 88°
2026-05-05 10:42 42.46931 14.96444 18766 ft 400 kts 88°
2026-05-05 10:43 42.47079 15.00218 18978 ft 402 kts 87°
2026-05-05 10:43 42.47226 15.03981 19036 ft 398 kts 88°
2026-05-05 10:43 42.47370 15.07719 19048 ft 396 kts 88°
2026-05-05 10:43 42.47509 15.11439 19049 ft 396 kts 88°
2026-05-05 10:44 42.47644 15.15165 19049 ft 396 kts 88°
2026-05-05 10:44 42.47778 15.18895 19049 ft 396 kts 88°
2026-05-05 10:44 42.47912 15.22612 19052 ft 396 kts 88°
2026-05-05 10:44 42.48052 15.26330 19052 ft 395 kts 88°
2026-05-05 10:45 42.48198 15.30053 19047 ft 395 kts 88°
2026-05-05 10:45 42.48347 15.33769 19051 ft 394 kts 88°
2026-05-05 10:45 42.48493 15.37427 19052 ft 394 kts 88°
2026-05-05 10:45 42.48635 15.41135 19052 ft 394 kts 88°
2026-05-05 10:46 42.48774 15.44843 19053 ft 394 kts 88°
2026-05-05 10:46 42.48911 15.48553 19054 ft 394 kts 88°
2026-05-05 10:46 42.49046 15.52299 19056 ft 407 kts 88°
2026-05-05 10:46 42.49183 15.56236 19054 ft 429 kts 88°
2026-05-05 10:47 42.49324 15.60348 19055 ft 445 kts 88°
2026-05-05 10:47 42.49469 15.64611 19049 ft 461 kts 88°
2026-05-05 10:47 42.49618 15.68977 19054 ft 466 kts 88°
2026-05-05 10:47 42.49772 15.73375 19054 ft 468 kts 88°
2026-05-05 10:48 42.49928 15.77778 19057 ft 468 kts 88°
2026-05-05 10:48 42.50080 15.82185 19060 ft 468 kts 88°
2026-05-05 10:48 42.50224 15.86588 19059 ft 468 kts 88°
2026-05-05 10:48 42.50361 15.90993 19059 ft 468 kts 88°
2026-05-05 10:49 42.50496 15.95388 19062 ft 468 kts 88°
2026-05-05 10:49 42.50630 15.99799 19061 ft 468 kts 89°
2026-05-05 10:49 42.50764 16.04198 19057 ft 467 kts 89°
2026-05-05 10:49 42.50897 16.08581 19057 ft 466 kts 89°
2026-05-05 10:50 42.51031 16.12967 19056 ft 466 kts 89°
2026-05-05 10:50 42.51161 16.17361 19053 ft 466 kts 89°
2026-05-05 10:50 42.51287 16.21744 19057 ft 465 kts 89°
2026-05-05 10:50 42.51411 16.26123 19055 ft 465 kts 89°
2026-05-05 10:51 42.51534 16.30506 19053 ft 465 kts 89°
2026-05-05 10:51 42.51657 16.34886 19046 ft 465 kts 89°
2026-05-05 10:51 42.51779 16.39268 19052 ft 465 kts 89°
2026-05-05 10:51 42.51897 16.43640 19064 ft 464 kts 89°
2026-05-05 10:52 42.52011 16.48016 19064 ft 463 kts 89°
2026-05-05 10:52 42.52085 16.50902 19071 ft 463 kts 89°
2026-05-05 10:52 42.52200 16.55253 19074 ft 462 kts 89°
2026-05-05 10:52 42.52314 16.59608 19066 ft 462 kts 89°
2026-05-05 10:53 42.52425 16.63954 19070 ft 462 kts 89°
2026-05-05 10:53 42.52568 16.69722 19065 ft 462 kts 89°
2026-05-05 10:53 42.52673 16.74069 19069 ft 462 kts 89°
2026-05-05 10:53 42.52779 16.78422 19067 ft 462 kts 89°
2026-05-05 10:54 42.52849 16.81364 19065 ft 462 kts 89°
2026-05-05 10:54 42.52952 16.85712 19067 ft 461 kts 89°
2026-05-05 10:54 42.53044 16.90055 19061 ft 461 kts 90°
2026-05-05 10:54 42.52693 16.94350 19062 ft 459 kts 105°
2026-05-05 10:55 42.51546 16.98352 19064 ft 455 kts 120°
2026-05-05 10:55 42.49902 17.02009 19066 ft 455 kts 124°
2026-05-05 10:55 42.48225 17.05648 19063 ft 455 kts 123°
2026-05-05 10:55 42.46562 17.09247 19096 ft 458 kts 123°
2026-05-05 10:56 42.44847 17.12950 19094 ft 459 kts 123°
2026-05-05 10:56 42.43171 17.16564 19096 ft 459 kts 124°
2026-05-05 10:56 42.41470 17.20229 19097 ft 461 kts 124°
2026-05-05 10:56 42.39771 17.23898 19096 ft 460 kts 123°
2026-05-05 10:57 42.38072 17.27565 19100 ft 459 kts 123°
2026-05-05 10:57 42.36377 17.31220 19100 ft 459 kts 123°
2026-05-05 10:57 42.34679 17.34881 19102 ft 460 kts 124°
2026-05-05 10:57 42.32975 17.38545 19103 ft 460 kts 123°
2026-05-05 10:58 42.31271 17.42205 19097 ft 460 kts 123°
2026-05-05 10:58 42.29567 17.45865 19094 ft 460 kts 123°
2026-05-05 10:58 42.27865 17.49515 19089 ft 460 kts 123°
2026-05-05 10:58 42.26158 17.53167 19075 ft 460 kts 123°
2026-05-05 10:59 42.24445 17.56823 19076 ft 460 kts 123°
2026-05-05 10:59 42.22734 17.60468 19080 ft 460 kts 123°
2026-05-05 10:59 42.21018 17.64118 19082 ft 460 kts 123°
2026-05-05 10:59 42.19303 17.67761 19082 ft 461 kts 123°
2026-05-05 11:00 42.17583 17.71412 19081 ft 461 kts 123°
2026-05-05 11:00 42.15865 17.75055 19087 ft 461 kts 123°
2026-05-05 11:00 42.14145 17.78702 19093 ft 461 kts 123°
2026-05-05 11:00 42.12426 17.82350 19093 ft 461 kts 123°
2026-05-05 11:01 42.10730 17.85944 19090 ft 461 kts 123°
2026-05-05 11:01 42.09007 17.89590 19095 ft 461 kts 123°
2026-05-05 11:01 42.07282 17.93234 19100 ft 461 kts 123°
2026-05-05 11:01 42.05557 17.96868 19102 ft 461 kts 123°
2026-05-05 11:02 42.03828 18.00504 19099 ft 461 kts 123°
2026-05-05 11:02 42.02100 18.04135 19101 ft 461 kts 123°
2026-05-05 11:02 42.00367 18.07770 19103 ft 461 kts 123°
2026-05-05 11:02 41.98634 18.11404 19108 ft 461 kts 123°
2026-05-05 11:03 41.96905 18.15024 19101 ft 461 kts 123°
2026-05-05 11:03 41.95171 18.18654 19100 ft 461 kts 123°
2026-05-05 11:03 41.93437 18.22276 19101 ft 461 kts 123°
2026-05-05 11:03 41.91703 18.25891 19101 ft 461 kts 123°
2026-05-05 11:04 41.89965 18.29507 19102 ft 461 kts 123°
2026-05-05 11:04 41.88227 18.33123 19101 ft 461 kts 123°
2026-05-05 11:04 41.86489 18.36739 19100 ft 461 kts 123°
2026-05-05 11:04 41.84748 18.40358 19101 ft 461 kts 123°
2026-05-05 11:05 41.83008 18.43969 19107 ft 461 kts 123°
2026-05-05 11:05 41.81268 18.47575 19110 ft 461 kts 123°
2026-05-05 11:05 41.79522 18.51184 19110 ft 461 kts 123°
2026-05-05 11:05 41.77782 18.54784 19111 ft 461 kts 123°
2026-05-05 11:06 41.76037 18.58389 19118 ft 461 kts 123°
2026-05-05 11:06 41.74293 18.61990 19120 ft 461 kts 123°
2026-05-05 11:06 41.72550 18.65593 19114 ft 461 kts 123°
2026-05-05 11:06 41.70810 18.69193 19113 ft 461 kts 123°
2026-05-05 11:07 41.69063 18.72798 19116 ft 461 kts 123°
2026-05-05 11:07 41.67315 18.76394 19117 ft 461 kts 124°
2026-05-05 11:07 41.65563 18.79980 19118 ft 461 kts 123°
2026-05-05 11:07 41.63804 18.83564 19116 ft 461 kts 123°
2026-05-05 11:08 41.62066 18.87095 19123 ft 461 kts 123°
2026-05-05 11:08 41.60316 18.90652 19087 ft 441 kts 123°
2026-05-05 11:08 41.58669 18.94005 18964 ft 423 kts 123°
2026-05-05 11:08 41.57111 18.97185 18856 ft 408 kts 123°
2026-05-05 11:09 41.55592 19.00297 18730 ft 393 kts 123°
2026-05-05 11:09 41.54116 19.03316 18423 ft 384 kts 123°
2026-05-05 11:09 41.52660 19.06283 17929 ft 380 kts 123°
2026-05-05 11:09 41.51215 19.09218 17432 ft 376 kts 123°
2026-05-05 11:10 41.49782 19.12121 16911 ft 373 kts 123°
2026-05-05 11:10 41.48363 19.14987 16444 ft 368 kts 123°
2026-05-05 11:10 41.46958 19.17822 15957 ft 365 kts 123°
2026-05-05 11:10 41.45567 19.20636 15452 ft 360 kts 123°
2026-05-05 11:11 41.44210 19.23382 14525 ft 351 kts 123°
2026-05-05 11:11 41.42876 19.26080 13464 ft 346 kts 124°
2026-05-05 11:11 41.41562 19.28737 12385 ft 340 kts 124°
2026-05-05 11:11 41.40265 19.31350 11334 ft 336 kts 124°
2026-05-05 11:12 41.39103 19.33691 10814 ft 320 kts 124°
2026-05-05 11:12 41.37922 19.36069 10471 ft 298 kts 124°
2026-05-05 11:12 41.36816 19.38289 10216 ft 277 kts 124°
2026-05-05 11:12 41.35717 19.40489 10138 ft 292 kts 124°
2026-05-05 11:13 41.34586 19.42757 9730 ft 294 kts 124°
2026-05-05 11:13 41.33448 19.45039 9250 ft 297 kts 124°
2026-05-05 11:13 41.32295 19.47257 8670 ft 286 kts 130°
2026-05-05 11:13 41.30962 19.49185 8038 ft 281 kts 135°
2026-05-05 11:14 41.29598 19.51022 7414 ft 277 kts 135°
2026-05-05 11:14 41.28257 19.52818 6802 ft 270 kts 135°
2026-05-05 11:14 41.26949 19.54568 6179 ft 263 kts 135°
2026-05-05 11:14 41.25685 19.56244 5553 ft 258 kts 138°
2026-05-05 11:15 41.24357 19.57814 4926 ft 254 kts 140°
2026-05-05 11:15 41.23018 19.59360 4278 ft 250 kts 141°
2026-05-05 11:15 41.21737 19.60853 3656 ft 248 kts 140°
2026-05-05 11:15 41.20450 19.62341 3108 ft 240 kts 140°
2026-05-05 11:16 41.19241 19.63751 2979 ft 218 kts 140°
2026-05-05 11:16 41.18112 19.65073 2991 ft 216 kts 138°
2026-05-05 11:16 41.17264 19.66654 3011 ft 209 kts 112°
2026-05-05 11:16 41.17108 19.68533 2993 ft 208 kts 83°
2026-05-05 11:17 41.17473 19.70395 3015 ft 208 kts 75°
2026-05-05 11:17 41.17850 19.72223 3000 ft 208 kts 73°
2026-05-05 11:17 41.18610 19.73841 3004 ft 210 kts 42°
2026-05-05 11:17 41.19883 19.74740 2998 ft 210 kts 11°
2026-05-05 11:18 41.21300 19.74761 3023 ft 195 kts 353°
2026-05-05 11:18 41.22585 19.74586 3010 ft 177 kts 351°
2026-05-05 11:18 41.23766 19.74424 3000 ft 169 kts 352°
2026-05-05 11:18 41.24917 19.74263 3002 ft 165 kts 352°
2026-05-05 11:19 41.26058 19.74107 2881 ft 163 kts 352°
2026-05-05 11:19 41.27192 19.73958 2746 ft 164 kts 353°
2026-05-05 11:19 41.28324 19.73810 2537 ft 162 kts 352°
2026-05-05 11:19 41.29447 19.73660 2403 ft 162 kts 353°
2026-05-05 11:20 41.30556 19.73511 2217 ft 158 kts 351°
2026-05-05 11:20 41.31655 19.73361 2069 ft 158 kts 352°
2026-05-05 11:20 41.32745 19.73215 1883 ft 157 kts 353°
2026-05-05 11:20 41.33843 19.73070 1623 ft 158 kts 351°
2026-05-05 11:21 41.34919 19.72928 1369 ft 155 kts 351°
2026-05-05 11:21 41.35988 19.72788 1141 ft 155 kts 350°
2026-05-05 11:21 41.37058 19.72647 887 ft 152 kts 353°
2026-05-05 11:21 41.38101 19.72510 692 ft 145 kts 351°
2026-05-05 11:22 41.39095 19.72377 494 ft 153 kts 353°
2026-05-05 11:22 41.40250 19.72229 1170 ft 171 kts 351°
2026-05-05 11:22 41.41501 19.72093 2128 ft 190 kts 354°
2026-05-05 11:22 41.42882 19.71917 2598 ft 211 kts 353°
2026-05-05 11:23 41.44364 19.71501 2949 ft 225 kts 334°
2026-05-05 11:23 41.45517 19.70159 2996 ft 222 kts 298°
2026-05-05 11:23 41.45917 19.68233 2993 ft 216 kts 269°
2026-05-05 11:23 41.45840 19.66230 3009 ft 217 kts 263°
2026-05-05 11:24 41.45673 19.64240 3005 ft 216 kts 261°
2026-05-05 11:24 41.45257 19.62336 3013 ft 214 kts 234°
2026-05-05 11:24 41.44168 19.61110 3006 ft 207 kts 199°
2026-05-05 11:24 41.42742 19.60872 3012 ft 210 kts 178°
2026-05-05 11:25 41.41261 19.60988 2998 ft 213 kts 176°
2026-05-05 11:25 41.39791 19.61155 3004 ft 212 kts 175°
2026-05-05 11:25 41.38333 19.61329 3007 ft 211 kts 175°
2026-05-05 11:25 41.36871 19.61499 3006 ft 213 kts 175°
2026-05-05 11:26 41.35402 19.61675 3004 ft 214 kts 175°
2026-05-05 11:26 41.33942 19.61851 2999 ft 211 kts 175°
2026-05-05 11:26 41.32486 19.62028 3002 ft 211 kts 175°
2026-05-05 11:26 41.30997 19.62207 2996 ft 213 kts 176°
2026-05-05 11:27 41.29551 19.62400 3007 ft 213 kts 175°
2026-05-05 11:27 41.28086 19.62616 3002 ft 213 kts 175°
2026-05-05 11:27 41.26620 19.62828 2996 ft 212 kts 175°
2026-05-05 11:27 41.25147 19.63027 3000 ft 213 kts 175°
2026-05-05 11:28 41.23662 19.63221 3001 ft 214 kts 175°
2026-05-05 11:28 41.22201 19.63426 2988 ft 210 kts 175°
2026-05-05 11:28 41.20748 19.63627 3000 ft 211 kts 175°
2026-05-05 11:28 41.19283 19.63829 2994 ft 213 kts 171°
2026-05-05 11:29 41.17932 19.64594 2996 ft 214 kts 142°
2026-05-05 11:29 41.17056 19.66183 3002 ft 217 kts 111°
2026-05-05 11:29 41.16925 19.68172 2999 ft 221 kts 81°
2026-05-05 11:29 41.17325 19.70160 3007 ft 224 kts 75°
2026-05-05 11:30 41.17751 19.72134 2994 ft 223 kts 73°
2026-05-05 11:30 41.18538 19.73885 3003 ft 224 kts 41°
2026-05-05 11:30 41.19911 19.74797 3020 ft 224 kts
2026-05-05 11:30 41.21419 19.74746 2979 ft 212 kts 352°
2026-05-05 11:31 41.22891 19.74537 2758 ft 211 kts 353°
2026-05-05 11:31 41.24330 19.74338 2629 ft 208 kts 352°
2026-05-05 11:31 41.25768 19.74145 2526 ft 204 kts 352°
2026-05-05 11:31 41.27195 19.73952 2482 ft 207 kts 352°
2026-05-05 11:32 41.28625 19.73763 2412 ft 205 kts 352°
2026-05-05 11:32 41.29997 19.73581 2312 ft 190 kts 353°
2026-05-05 11:32 41.31244 19.73417 2148 ft 167 kts 353°
2026-05-05 11:32 41.32337 19.73277 1976 ft 152 kts 352°
2026-05-05 11:33 41.33365 19.73144 1737 ft 147 kts 348°
2026-05-05 11:33 41.34359 19.73011 1493 ft 142 kts 348°
2026-05-05 11:33 41.35345 19.72877 1286 ft 143 kts 350°
2026-05-05 11:33 41.36332 19.72746 1048 ft 143 kts 349°
2026-05-05 11:34 41.37301 19.72615 838 ft 139 kts 350°
2026-05-05 11:34 41.38256 19.72485 629 ft 138 kts 352°
2026-05-05 11:34 41.39204 19.72343 448 ft 135 kts 349°
2026-05-05 11:34 41.40132 19.72202 224 ft 133 kts 353°
2026-05-05 11:35 41.41016 19.72116 134 ft 113 kts 352°
2026-05-05 11:35 41.41627 19.72031 125 ft 63 kts 355°
2026-05-05 11:35 41.41860 19.71999 124 ft 16 kts 353°
2026-05-05 11:35 41.41879 19.71961 122 ft 4 kts 266°
2026-05-05 11:36 41.41875 19.71892 122 ft 10 kts 265°
2026-05-05 11:36 41.41865 19.71786 124 ft 12 kts 261°
2026-05-05 11:36 41.41855 19.71687 122 ft 12 kts 262°
2026-05-05 11:36 41.41853 19.71625 124 ft 2 kts 284°
2026-05-05 11:37 41.41855 19.71620 124 ft 2 kts 291°
2026-05-05 11:37 41.41870 19.71607 123 ft 4 kts 334°
2026-05-05 11:37 41.41920 19.71584 120 ft 6 kts 348°
2026-05-05 11:37 41.41970 19.71579 122 ft 6 kts 359°
2026-05-05 11:38 41.41986 19.71578 122 ft 0 kts 358°
2026-05-05 11:38 41.41998 19.71578 120 ft 3 kts 358°
2026-05-05 11:38 41.42025 19.71565 120 ft 4 kts 321°
2026-05-05 11:38 41.42029 19.71543 122 ft 2 kts 272°
2026-05-05 11:39 41.42028 19.71533 122 ft 1 kts 268°
2026-05-05 11:39 41.42028 19.71517 122 ft 1 kts 266°
2026-05-05 11:39 41.42027 19.71507 122 ft 2 kts 266°
2026-05-05 11:39 41.42027 19.71501 122 ft 0 kts 266°
2026-05-05 11:52 41.42027 19.71502 123 ft 0 kts 266°
2026-05-05 12:09 41.42027 19.71503 123 ft 0 kts 266°
2026-05-05 12:29 41.42027 19.71504 123 ft 0 kts 266°